CAPE
0 0 0 0 0 0 0 0 0 0 0 0 0 0 0 0 0 0 0 0 0 0 0 0 0 0 1 3 5 8 9 14 20 28 25 20 20 24
0 0 0 0 0 0 0 0 0 0 0 0 0 0 0 0 0 0 0 0 0 0 0 0 0 0 0 0 2 8 13 14 18 25 20 31 36 19
0 0 0 0 0 0 0 0 0 0 0 0 0 0 0 0 0 0 0 0 0 0 0 0 0 0 0 2 5 5 6 8 19 22 21 16 40 27
0 0 0 0 0 0 0 0 0 0 0 0 0 0 0 0 0 0 0 0 0 0 0 0 0 0 0 2 9 10 10 17 25 24 20 26 40 47
0 0 0 0 0 0 0 0 0 0 0 0 0 0 0 0 0 0 0 0 0 0 0 0 0 0 0 7 8 15 12 23 50 45 22 22 27 35
0 0 0 0 0 0 0 0 0 0 0 0 0 0 0 0 0 0 0 0 0 0 0 0 0 0 0 0 2 20 39 47 48 43 46 38 29 39
0 0 0 0 0 0 0 0 0 0 0 0 0 0 0 0 0 0 0 0 0 0 0 0 0 0 0 0 0 6 12 20 46 49 35 29 60 45
0 0 0 0 0 0 0 0 0 0 0 0 0 0 0 0 0 0 0 0 0 0 0 0 0 0 0 0 0 0 8 27 34 61 44 57 64 50
0 0 0 0 0 0 0 0 0 0 0 0 0 0 0 0 0 0 0 0 0 0 0 0 0 0 0 0 1 0 10 23 28 39 50 44 73 44
0 0 0 0 0 0 0 0 0 0 0 0 0 0 0 0 0 0 0 0 0 0 0 3 1 2 1 1 18 11 3 13 36 50 60 56 35 23
0 0 0 0 0 0 0 0 0 0 0 0 0 0 0 2 4 0 0 0 0 0 0 3 1 4 8 7 0 22 16 22 37 55 71 49 15 23
0 0 0 0 0 0 0 0 0 0 0 0 0 0 0 0 0 0 0 0 0 2 0 6 5 6 19 8 16 2 7 34 20 45 54 41 5 10
0 0 0 0 0 0 0 0 0 0 0 0 0 0 0 0 0 0 0 0 4 5 1 19 19 13 12 18 21 9 11 7 8 40 29 11 11 7
0 0 0 0 0 0 0 0 0 0 0 0 0 0 0 0 0 0 0 0 2 4 0 7 18 19 14 15 21 23 22 26 41 33 5 16 0 0
0 0 11 5 0 0 0 0 0 0 0 0 0 0 0 0 0 0 0 1 2 10 6 0 7 26 5 25 30 46 46 25 8 2 18 26 6 6
0 17 0 0 0 0 0 0 0 0 0 0 0 0 0 0 0 0 3 2 7 3 15 19 30 0 0 3 6 20 6 14 1 1 22 33 11 0
0 0 0 0 0 0 0 0 0 0 0 0 0 0 0 0 0 1 2 1 34 16 27 3 0 0 0 0 10 16 6 1 3 14 20 1 1 0
0 0 0 0 0 0 0 0 0 0 0 0 0 0 0 0 2 1 0 0 20 13 1 1 0 4 8 2 2 3 2 14 29 4 0 0 0 0
0 0 0 0 0 0 0 0 0 0 0 0 0 0 0 1 3 2 1 0 11 18 8 14 4 3 7 6 10 0 5 5 1 0 0 0 0 0
0 0 0 0 0 0 0 0 0 0 0 0 0 0 0 2 3 2 1 0 3 4 15 16 4 4 10 1 17 1 0 0 0 0 0 0 0 0
0 0 0 0 0 0 0 0 0 0 0 0 0 0 0 1 1 1 1 1 0 0 1 0 1 0 0 0 0 0 0 0 0 0 0 0 0 0
0 0 0 0 0 0 0 0 0 0 0 0 0 0 0 0 1 1 1 0 0 1 1 0 0 0 0 0 0 0 0 0 0 0 0 0 0 0
0 0 0 0 0 0 0 0 0 0 0 0 0 0 0 0 0 1 1 1 0 2 2 1 0 0 0 0 0 0 0 0 0 0 0 0 0 0
CIN
0 0 0 0 0 0 0 0 0 0 0 0 0 0 0 0 0 0 0 0 0 0 0 0 0 0 0 0 0 0 0 0 0 0 0 0 0 0
0 0 0 0 0 0 0 0 0 0 0 0 0 0 0 0 0 0 0 0 0 0 0 0 0 0 0 0 0 0 0 0 0 0 0 0 0 0
0 0 0 0 0 0 0 0 0 0 0 0 0 0 0 0 0 0 0 0 0 0 0 0 0 0 0 0 0 0 0 0 0 0 0 0 0 0
0 0 0 0 0 0 0 0 0 0 0 0 0 0 0 0 0 0 0 0 0 0 0 0 0 0 0 0 0 0 0 0 0 0 0 0 0 0
0 0 0 0 0 0 0 0 0 0 0 0 0 0 0 0 0 0 0 0 0 0 0 0 0 0 0 0 0 0 0 0 0 0 0 0 0 0
0 0 0 0 0 0 0 0 0 0 0 0 0 0 0 0 0 0 0 0 0 0 0 0 0 0 0 0 0 0 -1 0 0 0 0 0 0 -1
0 0 0 0 0 0 0 0 0 0 0 0 0 0 0 0 0 0 0 0 0 0 0 0 0 0 0 0 0 0 -1 -1 0 0 0 0 0 -4
0 0 0 0 0 0 0 0 0 0 0 0 0 0 0 0 0 0 0 0 0 0 0 0 0 0 0 0 0 0 -14 -5 -1 0 -1 0 0 -2
0 0 0 0 0 0 0 0 0 0 0 0 0 0 0 0 0 0 0 0 0 0 0 0 0 0 0 0 0 0 -11 -1 -1 -2 0 0 0 -2
0 0 0 0 0 0 0 0 0 0 0 0 0 0 0 0 0 0 0 0 0 0 -1 0 -2 -1 -2 -1 0 0 -7 -4 0 0 0 0 -2 -2
0 0 0 0 0 0 0 0 0 0 0 0 0 0 0 0 0 0 0 0 0 0 0 -1 -1 -1 -1 -1 -2 0 0 0 0 0 0 -1 -1 -4
0 0 0 0 0 0 0 0 0 0 0 0 0 0 0 0 0 0 0 0 0 0 0 0 0 -1 0 -1 -1 -4 -1 0 -1 -1 -1 -1 -9 -6
0 0 0 0 0 0 0 0 0 0 0 0 0 0 0 0 0 0 0 0 0 0 -3 0 0 0 -1 0 -1 -1 -4 -5 -3 -2 -3 -7 -6 -2
0 0 0 0 0 0 0 0 0 0 0 0 0 0 0 0 0 0 0 0 -1 0 0 -1 0 0 -1 0 0 0 0 -1 0 0 -2 -1 0 0
0 0 -29 -10 0 0 0 0 0 0 0 0 0 0 0 0 0 0 0 -1 0 0 0 0 0 -2 -8 -2 -1 0 0 0 -7 -12 0 0 -2 0
0 -29 -1 0 0 0 0 0 0 0 0 0 0 0 0 0 0 -1 0 0 0 0 0 -1 -2 -8 0 -9 -5 0 -2 -1 -4 0 0 0 -9 0
0 0 0 0 0 0 0 0 0 0 0 0 0 0 0 0 0 0 0 0 -4 -6 -1 -3 0 0 -24 0 -1 -3 -4 -1 -1 0 0 -10 0 0
0 0 0 0 0 0 0 0 0 0 0 0 0 0 0 0 0 0 0 0 -1 0 0 0 0 -3 -2 -6 -10 -5 -2 -1 0 -3 0 0 0 0
0 0 0 0 0 0 0 0 0 0 0 0 0 0 0 0 0 0 0 0 -2 -5 -9 -10 -9 -6 -1 -2 -10 0 0 -1 0 0 0 0 0 0
0 0 0 0 0 0 0 0 0 0 0 0 0 0 0 0 0 0 0 0 0 -1 -3 -10 -5 -13 -5 -1 -1 0 0 0 0 0 0 0 0 0
0 0 0 0 0 0 0 0 0 0 0 0 0 0 0 0 0 0 0 0 0 0 -1 -1 -17 -6 0 0 0 0 0 0 0 0 0 0 0 0
0 0 0 0 0 0 0 0 0 0 0 0 0 0 0 0 0 0 0 0 0 0 0 0 0 0 0 0 0 0 0 0 0 0 0 0 0 0
0 0 0 0 0 0 0 0 0 0 0 0 0 0 0 0 0 0 0 0 0 0 0 0 0 0 0 0 0 0 0 0 0 0 0 0 0 0
Wind_Speed
14 13 11 8 7 6 5 5 6 5 5 4 4 4 4 4 6 4 4 9 12 12 15 16 18 17 18 20 22 21 21 21 21 21 17 16 20 18
10 12 11 5 9 7 5 5 4 6 4 5 5 3 4 3 5 5 6 10 12 15 16 15 18 20 21 24 23 21 20 21 20 22 16 18 22 19
12 13 14 11 9 8 6 4 5 5 5 2 3 3 3 5 5 4 5 5 5 15 17 20 21 22 21 21 21 22 22 22 23 20 18 21 20 19
13 13 14 9 11 10 9 9 7 5 5 6 5 4 6 5 5 5 4 4 5 14 19 20 20 21 22 22 22 22 21 22 21 21 21 20 19 20
14 15 14 13 12 9 9 9 6 6 4 4 5 3 4 3 5 4 5 5 6 17 20 22 23 23 23 21 22 22 21 20 19 20 21 19 21 20
14 14 15 15 15 14 12 11 7 7 5 4 3 4 4 4 3 4 5 4 6 7 13 18 21 21 23 23 22 20 21 20 21 23 19 19 21 19
15 14 16 18 25 21 12 11 10 7 4 4 3 3 3 3 4 3 4 5 6 6 8 9 8 9 10 18 20 20 21 20 21 21 20 17 16 18
13 12 14 23 24 27 25 24 18 12 7 5 4 5 5 4 3 4 5 2 6 4 6 9 7 9 9 8 18 20 18 19 20 21 20 17 17 17
15 13 14 12 18 14 22 22 21 21 13 10 6 6 5 6 4 5 6 7 10 11 10 13 8 11 9 10 22 22 22 22 19 16 16 17 17 16
17 17 17 14 13 14 12 9 8 8 9 7 7 6 6 6 7 7 10 10 10 12 10 14 9 13 10 10 20 22 24 21 19 17 15 16 16 15
10 11 13 13 21 24 13 11 8 5 6 9 10 12 14 16 15 7 8 9 13 12 9 11 12 11 9 9 9 20 21 20 18 16 15 17 17 16
9 10 23 17 25 25 13 11 9 6 5 2 2 5 9 9 18 11 9 11 11 9 11 10 11 6 4 6 8 8 8 16 15 14 14 19 17 6
10 10 9 24 24 23 17 9 7 7 5 3 3 4 5 7 8 9 11 10 10 13 12 5 4 4 4 1 3 5 6 6 6 7 16 15 14 10
10 8 10 24 23 21 14 15 14 9 4 2 2 4 5 7 9 9 12 13 13 19 20 12 6 6 6 3 3 5 6 6 6 6 6 10 13 12
7 14 23 25 24 17 18 15 11 5 4 1 3 4 4 8 9 10 12 13 12 6 8 13 11 7 5 4 5 7 9 7 7 7 6 7 6 5
16 15 17 15 16 14 9 8 4 4 3 2 3 4 5 6 8 8 9 9 2 6 11 11 8 8 7 7 7 8 8 4 8 7 5 7 5 7
11 11 10 8 8 7 6 5 4 4 1 2 3 4 6 7 8 8 6 5 4 4 6 7 9 10 9 10 8 6 7 9 7 8 7 8 5 6
10 11 8 8 8 7 6 4 3 2 1 1 3 4 5 7 8 8 5 4 6 5 8 7 10 10 10 8 7 8 8 8 8 9 8 8 7 5
11 8 8 7 7 6 5 4 3 1 1 2 4 4 6 7 9 6 6 5 6 6 6 6 8 7 10 8 5 10 7 7 8 9 7 5 6 4
9 8 7 8 7 6 4 4 2 2 3 4 4 5 6 7 7 7 7 5 4 7 5 3 4 7 8 6 8 3 7 7 8 9 9 8 8 12
8 8 7 7 6 5 5 4 4 4 4 4 4 5 6 7 7 7 6 9 6 7 6 5 4 12 8 7 7 6 6 14 9 8 8 8 6 3
8 8 7 7 6 5 4 4 5 4 4 4 4 5 6 6 7 8 8 6 6 7 7 5 4 4 6 11 9 8 7 9 15 21 18 5 5 6
8 7 7 7 5 5 5 5 5 4 4 4 4 5 6 7 7 7 7 7 7 6 6 6 6 6 6 7 12 5 10 9 4 6 8 17 5 5
Wind_Direction
217 202 206 203 191 179 163 157 160 196 237 244 221 210 201 199 229 224 238 256 257 266 274 270 268 271 273 272 269 267 269 271 272 271 267 275 271 271
221 201 201 183 194 183 171 167 161 159 206 194 221 230 212 229 247 250 248 251 261 272 269 270 268 269 269 270 263 264 266 269 265 264 269 272 269 269
221 209 202 188 195 184 170 161 165 146 191 241 208 222 243 246 265 257 242 249 254 263 266 267 266 268 266 260 258 259 259 257 254 255 258 265 263 261
222 215 209 186 196 184 179 185 181 172 147 184 197 221 212 230 235 241 246 235 240 259 266 265 265 264 261 259 257 254 254 253 252 249 256 265 266 262
223 221 216 191 192 180 180 178 175 172 159 153 206 211 233 226 251 256 249 254 255 261 262 264 267 265 260 255 252 248 247 249 244 244 251 259 266 265
232 231 226 201 193 182 181 183 167 166 145 172 197 218 213 222 212 234 269 228 256 255 258 262 264 262 259 258 258 256 246 242 243 246 237 248 259 257
223 224 226 208 201 188 172 176 165 162 152 170 197 194 208 203 206 216 237 266 266 247 256 254 249 251 252 262 259 250 239 240 237 236 240 239 243 250
226 223 223 214 211 197 185 179 173 170 174 166 189 212 220 219 197 226 250 233 288 235 226 252 224 236 238 235 244 244 244 244 245 242 241 235 235 243
221 206 213 209 198 190 189 185 187 190 185 178 193 197 220 207 212 246 236 240 255 263 273 269 249 254 241 236 236 238 238 241 239 238 239 234 224 230
218 201 197 196 179 169 165 154 162 183 196 189 184 203 215 232 209 239 256 264 265 262 247 265 256 255 247 239 234 230 236 234 235 233 232 219 217 215
179 187 188 182 182 169 149 144 146 164 187 190 204 228 248 259 267 268 268 269 270 265 251 253 254 256 245 233 223 229 232 229 225 223 217 210 206 195
167 188 200 182 178 167 150 148 153 177 166 206 303 283 278 276 279 267 263 258 266 282 246 237 250 242 241 202 199 206 211 213 207 208 214 186 185 166
168 184 189 180 164 157 146 144 157 140 179 178 245 273 276 271 269 254 244 246 256 251 245 222 199 191 213 106 143 160 158 171 186 190 179 164 161 162
167 165 168 157 144 142 133 142 141 135 127 148 256 271 274 275 270 281 283 265 250 248 258 220 213 193 179 141 138 132 142 156 157 151 146 152 165 161
138 155 147 136 137 129 135 142 125 120 125 162 262 264 249 274 298 298 289 287 280 301 273 193 171 175 141 123 130 140 145 125 124 133 135 149 160 180
151 140 127 124 122 123 111 101 108 127 144 213 259 266 270 316 312 302 301 304 25 46 55 98 132 116 104 103 104 108 117 127 140 136 134 128 133 131
133 106 107 112 107 98 87 97 102 96 139 255 269 304 327 322 315 318 303 319 51 96 84 65 71 90 99 108 111 106 107 123 131 134 142 123 103 107
116 114 119 118 117 111 116 111 87 116 221 304 338 345 324 327 325 327 342 356 103 106 103 106 106 100 97 79 66 123 124 128 132 131 120 110 87 89
108 119 122 118 110 117 120 118 133 207 279 52 25 339 342 333 339 345 6 9 88 94 98 116 120 121 118 124 96 71 130 120 128 119 117 107 110 95
116 121 115 111 115 118 118 116 118 79 63 41 16 352 353 340 345 6 9 7 71 91 90 73 117 128 142 133 115 87 64 111 103 97 97 85 87 83
110 107 105 108 113 116 112 108 106 79 66 45 17 2 2 348 359 9 11 32 77 96 91 88 97 110 105 97 91 83 54 66 83 109 110 103 115 84
107 107 106 113 116 111 109 105 84 71 60 41 16 14 7 1 5 10 9 28 53 94 97 82 64 91 115 107 100 93 87 82 80 74 49 52 147 157
102 108 112 110 104 105 103 95 89 78 64 44 28 22 15 16 6 14 18 26 41 78 95 89 77 76 74 102 121 113 119 118 68 60 36 18 10 135